[[{"header":{"parameterUnit":"m.s-1","parameterCategory":1,"la1":30.2991,"la2":30.254,"lo1":-89.0895,"lo2":-89.0444,"dy":0.0017,"dx":0.0017,"nx":28,"ny":28,"refTime":"2024-10-09T09:00:00:Z","depth":0,"parameterNumber":2,"parameterNumberName":"U-component_of_WINDS"},"data":[0,0,0,0,0,0,0,0,0,0,0,0,0,0,0,0,0,0,0,0,0,0,0,0,0,0,0,0,0,0,0,0,0,0,0,0,0,0,0,0,0,0,0,0,0,0,0,0,0,0,0,0,0,0,0,0,0,0,-1.8658,-1.8659,0,-1.8733,-1.8734,-1.8735,-1.8654,-1.8651,-1.8648,-1.8645,-1.8726,-1.8731,-1.8736,0,0,0,0,0,0,0,0,0,0,0,0,0,-1.8449,-1.8453,-1.8658,-1.8659,-1.866,-1.8733,-1.8734,-1.8735,-1.8655,-1.8651,-1.8647,-1.8643,-1.8725,-1.873,-1.8737,0,0,0,0,0,0,0,0,0,0,0,0,0,-1.8534,-1.8455,-1.8658,-1.8628,-1.8627,-1.8733,-1.8734,-1.8735,-1.8655,-1.8651,-1.8646,-1.8642,-1.8723,-1.873,-1.8737,-1.8877,0,0,-1.8761,-1.8764,0,0,0,0,0,0,0,0,-1.8529,-1.8541,-1.8632,-1.8631,-1.8629,-1.8679,-1.869,-1.8783,-1.8657,-1.8645,-1.8645,-1.8639,-1.8715,-1.8723,-1.8747,-1.8881,-1.8885,-1.8761,-1.8766,-1.8769,-1.8771,0,0,0,0,0,0,0,-1.8523,-1.8538,-1.8688,-1.8633,-1.8631,-1.8613,-1.862,-1.8707,-1.8705,-1.8645,-1.864,-1.8649,-1.8713,-1.874,-1.8748,-1.8886,-1.8761,-1.8768,-1.8772,-1.8775,-1.914,-1.9144,0,0,0,0,0,0,-1.852,-1.8533,-1.8685,-1.869,-1.8566,-1.862,-1.8628,-1.8668,-1.8704,-1.8705,-1.8653,-1.8645,-1.8729,-1.874,-1.8751,-1.8918,-1.8769,-1.8776,-1.878,-1.9135,-1.9141,-1.9146,0,0,0,0,0,0,-1.8516,-1.8534,-1.8682,-1.861,-1.8628,-1.8629,-1.8674,-1.8672,-1.8699,-1.871,-1.8709,-1.8681,-1.8726,-1.874,-1.8846,-1.892,-1.878,-1.8786,-1.9128,-1.9136,-1.9144,-1.9254,0,0,0,0,0,0,-1.851,-1.8533,-1.8586,-1.8612,-1.8632,-1.8776,-1.8679,-1.8677,-1.8711,-1.8702,-1.8736,-1.8737,-1.8723,-1.8836,-1.8854,-1.8928,-1.8792,-1.9122,-1.9132,-1.9141,-1.9244,-1.9265,-1.9282,0,0,0,0,0,-1.8503,-1.8615,-1.8589,-1.8608,-1.8697,-1.878,-1.8792,-1.8773,-1.8718,-1.8771,-1.8778,-1.8736,-1.8908,-1.8847,-1.8867,-1.8945,-1.9117,-1.9129,-1.914,-1.9236,-1.9261,-1.9282,0,0,0,0,0,0,-1.86,-1.8618,-1.8589,-1.8713,-1.8745,-1.8767,-1.8834,-1.88,-1.885,-1.884,-1.8815,-1.8823,-1.8936,-1.895,-1.8882,-1.9082,-1.9004,-1.902,-1.9069,-1.9094,-1.9112,-1.9108,-1.8799,0,0,0,0,0,-1.8635,-1.8699,-1.8712,-1.882,-1.8838,-1.8833,-1.8869,-1.8851,-1.8884,-1.8898,-1.8913,-1.8948,-1.901,-1.9052,-1.911,-1.9244,-1.9252,-1.9308,-1.9327,-1.9342,-1.9358,-1.9431,-1.9457,-1.9184,-1.9184,-1.9184,0,0,-1.8709,-1.8727,-1.877,-1.884,-1.8863,-1.8932,-1.8845,-1.8922,-1.8974,-1.891,-1.9012,-1.9024,-1.9061,-1.9183,-1.9237,-1.9198,-1.9434,-1.9357,-1.937,-1.9377,-1.9446,-1.9472,-1.9495,-1.9192,-1.9191,-1.9189,0,0,-1.888,-1.8899,-1.8992,-1.9016,-1.9052,-1.9048,-1.907,-1.9096,-1.9101,-1.9202,-1.9156,-1.9217,-1.9324,-1.9354,-1.9383,-1.9563,-1.9527,-1.9583,-1.9684,-1.9756,-1.9778,-1.9797,-1.9864,-1.9888,-1.9597,-1.9597,-1.9598,0,-1.8969,-1.907,-1.9044,-1.9124,-1.9157,-1.91,-1.9195,-1.922,-1.9274,-1.9298,-1.9253,-1.9386,-1.9408,-1.9536,-1.958,-1.9604,-1.9631,-1.958,-1.9777,-1.9795,-1.9813,-1.9876,-1.9901,-1.9604,-1.9603,-1.9603,-1.9602,0,-1.9178,-1.9249,-1.9319,-1.9371,-1.9411,-1.9498,-1.9486,-1.953,-1.9508,-1.9509,-1.9613,-1.9636,-1.9698,-1.9727,-1.9707,-1.9852,-1.9827,-1.978,-1.9701,-1.9846,-1.9905,-1.9929,-1.9614,-1.9611,-1.9609,-1.9608,0,0,-1.9416,-1.945,-1.9477,-1.9499,-1.9534,-1.9589,-1.9673,-1.9732,-1.9771,-1.9809,-1.9881,-1.9972,-1.9928,-1.9961,-1.9943,-2.0006,-2.015,-1.9951,-1.9951,-1.9989,-2.0314,-2.0352,-2.0381,-2.0125,-2.0129,-2.0133,-2.0312,0,-1.9589,-1.9734,-1.9713,-1.9853,-1.9919,-1.9866,-1.9939,-1.9969,-1.9972,-2.0029,-2.0032,-2.0098,-2.0034,-2.0053,-2.0113,-2.012,-2.0216,-2.0106,-2.0194,-2.0197,-2.0189,-2.0411,-2.0451,-2.062,-2.0335,-2.0339,-2.0341,0,-1.9812,-1.9857,-2.0004,-2.0028,-2.0055,-2.0121,-2.0174,-2.0228,-2.0261,-2.0259,-2.0295,-2.0265,-2.0351,-2.0268,-2.0387,-2.0313,-2.0347,-2.0356,-2.0362,-2.0372,-2.028,-2.043,-2.0673,-2.0699,-2.0377,-2.0374,-2.0372,0,-1.9974,-2.0071,-2.0171,-2.0192,-2.0222,-2.027,-2.0285,-2.0313,-2.035,-2.0396,-2.042,-2.0475,-2.0507,-2.0551,-2.0538,-2.0478,-2.066,-2.0576,-2.0663,-2.0664,-2.0707,-2.0705,-2.0961,-2.0724,-2.0723,-2.0723,-2.0722,0,-2.0172,-2.0265,-2.0244,-2.0307,-2.0409,-2.0383,-2.0486,-2.0494,-2.0519,-2.0583,-2.0539,-2.0601,-2.0578,-2.0639,-2.0629,-2.073,-2.0744,-2.0746,-2.0743,-2.0752,-2.0752,-2.0776,-2.0765,-2.0729,-2.0728,-2.0726,-2.0725,0,-2.0371,-2.0361,-2.0467,-2.0486,-2.0493,-2.0568,-2.0585,-2.0644,-2.0642,-2.0723,-2.0741,-2.0739,-2.0808,-2.0798,-2.0875,-2.0868,-2.0995,-2.0976,-2.0984,-2.0981,-2.1069,-2.1062,-2.1353,-2.1391,-2.1126,-2.1128,-2.113,0,-2.05,-2.057,-2.0595,-2.0634,-2.0653,-2.0716,-2.0753,-2.0729,-2.077,-2.0812,-2.0867,-2.0931,-2.0981,-2.1094,-2.11,-2.1159,-2.1143,-2.1241,-2.1152,-2.1159,-2.1148,-2.1145,-2.1153,-2.126,-2.1263,-2.1265,-2.1267,0,-2.0731,-2.0721,-2.0775,-2.0828,-2.0873,-2.0914,-2.095,-2.0985,-2.0964,-2.1012,-2.1081,-2.112,-2.1198,-2.1263,-2.1318,-2.1334,-2.1299,-2.1294,-2.1318,-2.1329,-2.1332,-2.1335,-2.1035,-2.1289,-2.1286,-2.1285,-2.1284,-2.1283,-2.09,-2.096,-2.0988,-2.105,-2.1074,-2.1109,-2.1165,-2.1169,-2.1226,-2.1287,-2.1269,-2.1348,-2.1379,-2.1448,-2.1471,-2.1533,-2.1497,-2.1531,-2.154,-2.155,-2.1561,-2.1319,-2.1542,-2.1542,-2.1541,-2.1541,-2.154,0,-2.1131,-2.1145,-2.1202,-2.1254,-2.1303,-2.1261,-2.1299,-2.1344,-2.1413,-2.1444,-2.1494,-2.1573,-2.1636,-2.1646,-2.1706,-2.1754,-2.1739,-2.1771,-2.1769,-2.1774,-2.1589,-2.1563,-2.1782,-2.1782,-2.1782,-2.1782,-2.1782,-2.1782,-2.1257,-2.1357,-2.1351,-2.1462,-2.1476,-2.1552,-2.1577,-2.161,-2.1634,-2.1725,-2.1776,-2.1781,-2.1804,-2.1865,-2.1922,-2.1923,-2.1948,-2.1987,-2.1983,-2.1811,-2.1787,-2.1764,-2.174,-2.1992,-2.1992,-2.2163,-2.2165,-2.2166]},{"header":{"parameterUnit":"m.s-1","parameterCategory":1,"la1":30.2991,"la2":30.254,"lo1":-89.0895,"lo2":-89.0444,"dy":0.0017,"dx":0.0017,"nx":28,"ny":28,"refTime":"2024-10-09T09:00:00:Z","depth":0,"parameterNumber":3,"parameterNumberName":"V-component_of_WINDS"},"data":[0,0,0,0,0,0,0,0,0,0,0,0,0,0,0,0,0,0,0,0,0,0,0,0,0,0,0,0,0,0,0,0,0,0,0,0,0,0,0,0,0,0,0,0,0,0,0,0,0,0,0,0,0,0,0,0,0,0,-4.0468,-4.0469,0,-4.0534,-4.0534,-4.0535,-4.0474,-4.0471,-4.0469,-4.0466,-4.053,-4.0534,-4.0538,0,0,0,0,0,0,0,0,0,0,0,0,0,-4.0285,-4.0289,-4.0468,-4.0469,-4.047,-4.0534,-4.0534,-4.0535,-4.0474,-4.0471,-4.0468,-4.0465,-4.0529,-4.0534,-4.0538,0,0,0,0,0,0,0,0,0,0,0,0,0,-4.0359,-4.029,-4.0468,-4.0447,-4.0446,-4.0533,-4.0534,-4.0536,-4.0475,-4.0471,-4.0467,-4.0464,-4.0527,-4.0533,-4.0539,-4.065,0,0,-4.0557,-4.056,0,0,0,0,0,0,0,0,-4.0355,-4.0366,-4.0449,-4.0449,-4.0447,-4.0492,-4.0493,-4.0574,-4.0476,-4.0464,-4.0466,-4.0462,-4.052,-4.0527,-4.0547,-4.0653,-4.0655,-4.0558,-4.0561,-4.0564,-4.0566,0,0,0,0,0,0,0,-4.035,-4.0363,-4.0494,-4.045,-4.0449,-4.0433,-4.0439,-4.0508,-4.0512,-4.0464,-4.046,-4.0469,-4.0519,-4.0541,-4.0548,-4.0656,-4.0558,-4.0563,-4.0567,-4.0569,-4.0854,-4.0858,0,0,0,0,0,0,-4.0348,-4.0359,-4.0492,-4.0496,-4.0391,-4.0439,-4.0446,-4.0481,-4.0511,-4.0512,-4.0472,-4.0466,-4.0533,-4.0541,-4.055,-4.068,-4.0564,-4.057,-4.0573,-4.0851,-4.0855,-4.086,0,0,0,0,0,0,-4.0344,-4.036,-4.0489,-4.0426,-4.0441,-4.0446,-4.0486,-4.0484,-4.0507,-4.0517,-4.0516,-4.0494,-4.053,-4.0541,-4.0625,-4.0682,-4.0572,-4.0578,-4.0846,-4.0852,-4.0858,-4.0943,0,0,0,0,0,0,-4.0339,-4.0359,-4.0402,-4.0428,-4.0445,-4.0565,-4.0489,-4.0488,-4.0518,-4.051,-4.0538,-4.0538,-4.0528,-4.0617,-4.0631,-4.0688,-4.0582,-4.0841,-4.0849,-4.0856,-4.0935,-4.0951,-4.0965,0,0,0,0,0,-4.0333,-4.0423,-4.0405,-4.0421,-4.0499,-4.0568,-4.0578,-4.0565,-4.0522,-4.0565,-4.0571,-4.0538,-4.0673,-4.0626,-4.0642,-4.0701,-4.0837,-4.0846,-4.0855,-4.0929,-4.0948,-4.0965,0,0,0,0,0,0,-4.0404,-4.0426,-4.0406,-4.0508,-4.0537,-4.0558,-4.0611,-4.0587,-4.0627,-4.0619,-4.06,-4.0607,-4.0695,-4.0706,-4.0653,-4.0809,-4.0748,-4.0761,-4.0798,-4.0817,-4.0832,-4.0827,-4.0587,0,0,0,0,0,-4.0431,-4.0487,-4.0503,-4.0591,-4.0607,-4.0607,-4.0636,-4.0624,-4.0653,-4.0664,-4.0677,-4.0705,-4.0753,-4.0786,-4.0831,-4.0936,-4.0941,-4.0985,-4.1,-4.1012,-4.1023,-4.1078,-4.1098,-4.0889,-4.0889,-4.0889,0,0,-4.0489,-4.0508,-4.0544,-4.0606,-4.0627,-4.0683,-4.0618,-4.068,-4.0721,-4.0673,-4.0753,-4.0763,-4.0793,-4.0888,-4.093,-4.09,-4.1082,-4.1024,-4.1033,-4.1038,-4.1089,-4.1109,-4.1127,-4.0895,-4.0894,-4.0893,0,0,-4.0622,-4.0643,-4.0718,-4.074,-4.0773,-4.0772,-4.0791,-4.0815,-4.082,-4.0901,-4.0866,-4.0913,-4.0998,-4.1021,-4.1043,-4.1184,-4.1154,-4.1199,-4.1277,-4.1331,-4.1347,-4.1362,-4.1411,-4.1429,-4.121,-4.121,-4.1211,0,-4.0689,-4.0774,-4.076,-4.0825,-4.0853,-4.0813,-4.0888,-4.091,-4.0955,-4.0975,-4.094,-4.1045,-4.1063,-4.1161,-4.1196,-4.1216,-4.1234,-4.1196,-4.1346,-4.1361,-4.1374,-4.1421,-4.1439,-4.1216,-4.1215,-4.1214,-4.1214,0,-4.0854,-4.0913,-4.097,-4.1016,-4.105,-4.112,-4.1115,-4.115,-4.1135,-4.1137,-4.1219,-4.1238,-4.1286,-4.1309,-4.1294,-4.1405,-4.1385,-4.1349,-4.1288,-4.1399,-4.1443,-4.1461,-4.1223,-4.1221,-4.122,-4.1218,0,0,-4.1034,-4.1071,-4.1092,-4.1112,-4.1145,-4.119,-4.1257,-4.1305,-4.1336,-4.1368,-4.1423,-4.1495,-4.1462,-4.1487,-4.1475,-4.1522,-4.1631,-4.148,-4.148,-4.1506,-4.1754,-4.178,-4.1801,-4.1612,-4.1615,-4.1618,-4.1751,0,-4.1168,-4.1286,-4.1275,-4.1387,-4.1441,-4.1403,-4.1461,-4.1487,-4.1491,-4.1536,-4.1539,-4.159,-4.1543,-4.1558,-4.1603,-4.1608,-4.168,-4.1599,-4.1661,-4.1664,-4.1655,-4.1824,-4.1853,-4.1978,-4.1768,-4.1771,-4.1773,0,-4.134,-4.138,-4.1497,-4.1521,-4.1543,-4.1596,-4.1638,-4.1683,-4.171,-4.1709,-4.1738,-4.1717,-4.1782,-4.172,-4.181,-4.1754,-4.1779,-4.1785,-4.179,-4.1795,-4.1725,-4.1833,-4.2017,-4.2036,-4.18,-4.1798,-4.1796,0,-4.1459,-4.1541,-4.1622,-4.164,-4.167,-4.1708,-4.1722,-4.1746,-4.1775,-4.1812,-4.183,-4.1874,-4.1898,-4.1931,-4.1922,-4.1877,-4.2013,-4.195,-4.2013,-4.2014,-4.2044,-4.2042,-4.2234,-4.2061,-4.2061,-4.206,-4.206,0,-4.1609,-4.1682,-4.1675,-4.1725,-4.1805,-4.1791,-4.187,-4.1879,-4.1901,-4.195,-4.192,-4.1967,-4.1951,-4.1997,-4.199,-4.2065,-4.2076,-4.2076,-4.2073,-4.2078,-4.2078,-4.2094,-4.2085,-4.2065,-4.2064,-4.2063,-4.2062,0,-4.1755,-4.1754,-4.1839,-4.1861,-4.1868,-4.1926,-4.1943,-4.1989,-4.199,-4.2053,-4.2067,-4.2069,-4.2121,-4.2114,-4.2172,-4.2167,-4.226,-4.2247,-4.2251,-4.2248,-4.2311,-4.2305,-4.252,-4.2547,-4.2357,-4.2359,-4.236,0,-4.1851,-4.1907,-4.1934,-4.1966,-4.1983,-4.2034,-4.2064,-4.2051,-4.2083,-4.2118,-4.2159,-4.2209,-4.2248,-4.2332,-4.2337,-4.2381,-4.2368,-4.2441,-4.2375,-4.2378,-4.2368,-4.2365,-4.237,-4.2453,-4.2456,-4.2457,-4.2459,0,-4.2021,-4.2018,-4.2063,-4.2108,-4.2144,-4.2178,-4.2209,-4.2237,-4.2226,-4.2264,-4.2317,-4.2347,-4.2406,-4.2455,-4.2497,-4.2509,-4.2482,-4.2479,-4.2496,-4.2502,-4.2502,-4.2502,-4.2286,-4.2475,-4.2473,-4.2472,-4.2471,-4.247,-4.2145,-4.2192,-4.2219,-4.2269,-4.2291,-4.2321,-4.2365,-4.2372,-4.2416,-4.2464,-4.2454,-4.2513,-4.2538,-4.259,-4.2607,-4.2653,-4.2626,-4.2651,-4.2657,-4.2663,-4.267,-4.2495,-4.266,-4.266,-4.2659,-4.2659,-4.2659,0,-4.2313,-4.2328,-4.2375,-4.2419,-4.2459,-4.2431,-4.2464,-4.2498,-4.2552,-4.2577,-4.2616,-4.2677,-4.2724,-4.2733,-4.2777,-4.2812,-4.2801,-4.2824,-4.2821,-4.2824,-4.2692,-4.2673,-4.2832,-4.2832,-4.2832,-4.2832,-4.2832,-4.2832,-4.2405,-4.2483,-4.2482,-4.257,-4.2584,-4.2644,-4.2665,-4.2691,-4.2711,-4.2781,-4.282,-4.2826,-4.2845,-4.289,-4.2931,-4.2933,-4.295,-4.2978,-4.2975,-4.2851,-4.2833,-4.2817,-4.2799,-4.2982,-4.2983,-4.3103,-4.3104,-4.3105]}]]